Find Starlink 4783

NORAD ID: 53835 Int'l Des: 2022-114 Owner: SPXS Country: US Constellation: starlink operational
LEOCIRCULAR

Live Position

Loading 3D Globe...

About Starlink 4783

Description loading...

Upcoming Passes

Passes for default location (London). Set your location on the main map for personalized predictions.

Altitude History

Loading altitude history...

Two-Line Element Set

1 53835U 22114T 26121.14690161 -.00001542 00000-0 -78847-4 0 9996
2 53835 53.2189 68.4223 0001552 85.2354 274.8816 15.08836083200751
Epoch: May 1, 2026 • Age: 11 hours

Current Status

Altitude 558.5 km
Velocity 7.58 km/s
Sub-Earth Point -51.03°S, 119.2°W
Launch Date Sep 19, 2022
Age 3.6 years
Type internet

Technical Details

Classification Payload
Mass 305.00 kg
Dry Mass 290.00 kg
Total Mass 305.00 kg
Length 0.20 m
Diameter 2.80 m
Span 9.00 m
Shape Box + pan
Manufacturer SPXS
Bus Type Starlink
Phase Status In Orbit
Owner/State SPXS/US

Most Searched